EW3867 Weather Reports


Display with metric or nautical units.
time (UTC)temp
F
wind
direction
speed
MPH
gust
MPH
rain 1hr
in
rain 24hr
in
rain mn
in
humidity
%
barometer
mb
20260509014124 70 0 0.0 12.0 0.00 0.00 0.00 19 1004.2
20260509013059 70 0 1.0 12.0 0.00 0.00 0.00 18 1004.1
20260509012102 71 0 1.0 8.0 0.00 0.00 0.00 18 1004.2
20260509011038 73 0 4.0 11.0 0.00 0.00 0.00 17 1004.2
20260509010027 73 0 4.0 13.0 0.00 0.00 0.00 18 1004.3
20260509003858 72 271 9.0 21.0 0.00 0.00 0.00 17 1004.2
20260509002914 74 0 7.0 24.0 0.00 0.00 0.00 17 1004.2
20260509001847 74 0 8.0 24.0 0.00 0.00 0.00 16 1004.2
20260509000841 75 0 6.0 15.0 0.00 0.00 0.00 15 1004.2
20260508235841 75 0 7.0 19.0 0.00 0.00 0.00 16 1004.3
20260508234829 74 269 11.0 22.0 0.00 0.00 0.00 16 1004.3
20260508230455 76 0 7.0 19.0 0.00 0.00 0.00 15 1004.3
20260508225427 76 0 15.0 22.0 0.00 0.00 0.00 16 1004.4
20260508224422 75 0 15.0 25.0 0.00 0.00 0.00 16 1004.4
20260508223401 76 0 16.0 25.0 0.00 0.00 0.00 15 1004.5
20260508222352 77 0 15.0 23.0 0.00 0.00 0.00 14 1004.4
20260508221348 76 0 16.0 26.0 0.00 0.00 0.00 14 1004.5
20260508220340 77 0 11.0 26.0 0.00 0.00 0.00 14 1004.5
20260508215333 77 0 11.0 26.0 0.00 0.00 0.00 15 1004.6
20260508214355 78 0 9.0 25.0 0.00 0.00 0.00 15 1004.7
20260508213346 77 341 13.0 25.0 0.00 0.00 0.00 16 1004.9
20260508212327 76 0 13.0 21.0 0.00 0.00 0.00 16 1005.0
20260508211330 76 0 13.0 21.0 0.00 0.00 0.00 18 1005.1
20260508210304 77 0 10.0 30.0 0.00 0.00 0.00 17 1005.2
20260508205318 76 0 10.0 30.0 0.00 0.00 0.00 18 1005.4
20260508204300 76 330 11.0 23.0 0.00 0.00 0.00 18 1005.5
20260508202050 76 0 9.0 19.0 0.00 0.00 0.00 18 1005.8
20260508195927 75 0 8.0 26.0 0.00 0.00 0.00 17 1006.0
20260508194910 75 0 9.0 26.0 0.00 0.00 0.00 17 1006.1
20260508193911 76 271 13.0 19.0 0.00 0.00 0.00 17 1006.1
20260508192922 76 0 11.0 25.0 0.00 0.00 0.00 17 1006.2
20260508191920 75 344 13.0 25.0 0.00 0.00 0.00 17 1006.2
20260508190944 74 0 3.0 11.0 0.00 0.00 0.00 19 1006.2
20260508185920 74 241 8.0 21.0 0.00 0.00 0.00 19 1006.4
20260508184854 74 0 4.0 16.0 0.00 0.00 0.00 19 1006.7
20260508183848 73 274 13.0 24.0 0.00 0.00 0.00 19 1006.9
20260508182854 73 347 0.0 15.0 0.00 0.00 0.00 20 1007.0
20260508181850 72 210 6.0 19.0 0.00 0.00 0.00 20 1007.3
20260508180827 72 0 8.0 16.0 0.00 0.00 0.00 20 1007.4
20260508175846 72 0 4.0 11.0 0.00 0.00 0.00 21 1007.5
20260508174837 71 272 7.0 17.0 0.00 0.00 0.00 21 1007.7
20260508173810 71 0 1.0 11.0 0.00 0.00 0.00 21 1007.9
20260508172739 71 0 9.0 15.0 0.00 0.00 0.00 20 1008.1
20260508170700 71 267 10.0 19.0 0.00 0.00 0.00 20 1008.3
20260508165718 70 0 4.0 19.0 0.00 0.00 0.00 21 1008.4
20260508164742 70 271 10.0 19.0 0.00 0.00 0.00 22 1008.7
20260508163717 70 0 8.0 19.0 0.00 0.00 0.00 21 1008.7
20260508162713 70 0 6.0 19.0 0.00 0.00 0.00 21 1008.8
20260508161655 68 343 7.0 16.0 0.00 0.00 0.00 22 1008.8
20260508160630 68 343 4.0 16.0 0.00 0.00 0.00 22 1009.0
20260508155620 67 0 6.0 15.0 0.00 0.00 0.00 22 1009.1
20260508154638 67 0 6.0 12.0 0.00 0.00 0.00 22 1009.1
20260508153653 67 331 3.0 13.0 0.00 0.00 0.00 22 1009.3
20260508152634 66 0 4.0 11.0 0.00 0.00 0.00 23 1009.3
20260508150539 65 0 1.0 7.0 0.00 0.00 0.00 24 1009.6
20260508145511 64 0 1.0 11.0 0.00 0.00 0.00 25 1009.8
20260508144505 64 0 0.0 0.0 0.00 0.00 0.00 26 1009.8
20260508143449 63 0 0.0 8.0 0.00 0.00 0.00 25 1009.9
20260508141327 60 0 0.0 0.0 0.00 0.00 0.00 29 1010.0
20260508140344 59 0 0.0 0.0 0.00 0.00 0.00 30 1010.2
20260508135316 57 0 0.0 0.0 0.00 0.00 0.00 31 1010.2
20260508134305 55 0 0.0 0.0 0.00 0.00 0.00 35 1010.2
20260508132124 52 0 0.0 0.0 0.00 0.00 0.00 36 1010.2
20260508131107 49 0 0.0 0.0 0.00 0.00 0.00 39 1010.1
20260508130117 47 0 0.0 2.0 0.00 0.00 0.00 40 1010.1
20260508124002 46 332 0.0 0.0 0.00 0.00 0.00 40 1010.2
20260508121849 45 332 0.0 4.0 0.00 0.00 0.00 42 1010.2
20260508120904 44 332 0.0 1.0 0.00 0.00 0.00 43 1010.2
20260508115838 43 332 0.0 0.0 0.00 0.00 0.00 45 1010.3
20260508114811 42 332 0.0 0.0 0.00 0.00 0.00 45 1010.4
20260508113818 41 332 0.0 0.0 0.00 0.00 0.00 46 1010.3
20260508111725 42 332 0.0 0.0 0.00 0.00 0.00 45 1010.4
20260508110726 42 332 0.0 1.0 0.00 0.00 0.00 46 1010.4
20260508105732 42 332 0.0 0.0 0.00 0.00 0.00 46 1010.5
20260508104711 42 332 0.0 0.0 0.00 0.00 0.00 45 1010.5
20260508103654 42 332 0.0 4.0 0.00 0.00 0.00 44 1010.5
20260508102703 44 332 0.0 0.0 0.00 0.00 0.00 42 1010.6
20260508101715 44 332 0.0 0.0 0.00 0.00 0.00 43 1010.6
20260508100658 45 332 0.0 0.0 0.00 0.00 0.00 42 1010.7
20260508095700 44 332 0.0 0.0 0.00 0.00 0.00 42 1010.6
20260508094644 43 332 0.0 0.0 0.00 0.00 0.00 43 1010.6
20260508093654 43 332 0.0 0.0 0.00 0.00 0.00 44 1010.6
20260508092651 43 332 0.0 0.0 0.00 0.00 0.00 43 1010.6
20260508091712 43 332 0.0 0.0 0.00 0.00 0.00 42 1010.7
20260508090641 44 332 0.0 0.0 0.00 0.00 0.00 42 1010.7
20260508085637 44 332 0.0 0.0 0.00 0.00 0.00 41 1010.7
20260508084625 46 332 0.0 0.0 0.00 0.00 0.00 39 1010.9
20260508083610 47 332 0.0 0.0 0.00 0.00 0.00 38 1011.0
20260508082552 47 332 0.0 7.0 0.00 0.00 0.00 39 1011.1
20260508081553 47 0 0.0 5.0 0.00 0.00 0.00 39 1011.2
20260508080525 47 0 0.0 0.0 0.00 0.00 0.00 38 1011.3
20260508075541 47 0 0.0 5.0 0.00 0.00 0.00 38 1011.3
20260508074506 48 0 0.0 1.0 0.00 0.00 0.00 36 1011.4
20260508072339 49 0 0.0 1.0 0.00 0.00 0.00 35 1011.7
20260508071312 48 0 0.0 0.0 0.00 0.00 0.00 36 1011.7
20260508070302 46 0 0.0 0.0 0.00 0.00 0.00 37 1011.8
20260508065234 47 0 0.0 0.0 0.00 0.00 0.00 36 1011.9
20260508063132 51 0 0.0 0.0 0.00 0.00 0.00 33 1011.9
20260508062137 50 0 0.0 0.0 0.00 0.00 0.00 34 1011.9
20260508061122 50 0 0.0 0.0 0.00 0.00 0.00 34 1012.0
20260508060120 49 0 0.0 0.0 0.00 0.00 0.00 34 1012.0
20260508055058 49 0 0.0 0.0 0.00 0.00 0.00 34 1011.9
20260508054036 50 0 0.0 0.0 0.00 0.00 0.00 33 1011.9
20260508053017 50 0 0.0 0.0 0.00 0.00 0.00 33 1012.0
20260508050848 52 0 0.0 0.0 0.00 0.00 0.00 32 1012.2
20260508045827 52 0 0.0 0.0 0.00 0.00 0.00 31 1012.2
20260508044752 53 0 0.0 0.0 0.00 0.00 0.00 30 1012.3
20260508043735 53 0 0.0 0.0 0.00 0.00 0.00 30 1012.2
20260508042741 54 0 0.0 0.0 0.00 0.00 0.00 29 1012.2
20260508041734 55 0 0.0 1.0 0.00 0.00 0.00 29 1012.3
20260508035632 56 0 0.0 0.0 0.00 0.00 0.00 27 1012.2
20260508033513 57 0 0.0 7.0 0.00 0.00 0.00 27 1011.9
20260508032441 56 0 0.0 4.0 0.00 0.00 0.00 28 1011.8
20260508030319 55 0 0.0 0.0 0.00 0.00 0.00 27 1011.6
20260508025341 56 0 0.0 0.0 0.00 0.00 0.00 27 1011.6
20260508024407 56 0 0.0 0.0 0.00 0.00 0.00 26 1011.6
20260508023429 57 0 0.0 0.0 0.00 0.00 0.00 26 1011.4
20260508022442 58 0 0.0 0.0 0.00 0.00 0.00 25 1011.4
20260508021417 59 0 0.0 0.0 0.00 0.00 0.00 23 1011.4
20260508020442 60 0 0.0 0.0 0.00 0.00 0.00 23 1011.4
20260508015442 61 0 0.0 1.0 0.00 0.00 0.00 22 1011.4